Time,TemperatureF,DewpointF,PressureIn,WindDirection,WindDirectionDegrees,WindSpeedMPH,WindSpeedGustMPH,Humidity,HourlyPrecipIn,Conditions,Clouds,dailyrainin,SoftwareType,DateUTC
2013-05-21 05:00:00,-999.0,-99.9,-100.00,ESE,120,3.0,-999.0,-999,0.00,,,0.00,,2013-05-21 10:00:00,
2013-05-21 05:42:00,-999.0,-99.9,-100.00,ESE,120,3.0,-999.0,-999,0.00,,,0.00,,2013-05-21 10:42:00,
2013-05-21 05:53:00,-999.0,-99.9,-100.00,ESE,120,3.0,-999.0,-999,0.00,,,0.00,,2013-05-21 10:53:00,
2013-05-21 06:00:00,-999.0,-99.9,-100.00,East,90,2.0,-999.0,-999,0.00,,,0.00,,2013-05-21 11:00:00,
2013-05-21 06:42:00,-999.0,-99.9,-100.00,East,90,2.0,-999.0,-999,0.00,,,0.00,,2013-05-21 11:42:00,
2013-05-21 06:52:00,-999.0,-99.9,-100.00,East,90,2.0,-999.0,-999,0.00,,,0.00,,2013-05-21 11:52:00,
2013-05-21 07:00:00,-999.0,-99.9,-100.00,SW,214,2.0,-999.0,-999,0.00,,,0.00,,2013-05-21 12:00:00,
2013-05-21 07:42:00,-999.0,-99.9,-100.00,SW,214,2.0,-999.0,-999,0.00,,,0.00,,2013-05-21 12:42:00,
2013-05-21 07:52:00,-999.0,-99.9,-100.00,SW,214,2.0,-999.0,-999,0.00,,,0.00,,2013-05-21 12:52:00,
2013-05-21 08:00:00,-999.0,-99.9,-100.00,South,185,2.0,-999.0,-999,0.00,,,0.00,,2013-05-21 13:00:00,
2013-05-21 08:42:00,-999.0,-99.9,-100.00,South,185,2.0,-999.0,-999,0.00,,,0.00,,2013-05-21 13:42:00,
2013-05-21 08:52:00,-999.0,-99.9,-100.00,South,185,2.0,-999.0,-999,0.00,,,0.00,,2013-05-21 13:52:00,
2013-05-21 09:00:00,-999.0,-99.9,-100.00,South,171,6.0,-999.0,-999,0.00,,,0.00,,2013-05-21 14:00:00,
2013-05-21 09:42:00,-999.0,-99.9,-100.00,South,171,6.0,-999.0,-999,0.00,,,0.00,,2013-05-21 14:42:00,
2013-05-21 09:52:00,-999.0,-99.9,-100.00,South,171,6.0,-999.0,-999,0.00,,,0.00,,2013-05-21 14:52:00,
2013-05-21 10:00:00,-999.0,-99.9,-100.00,SSW,195,5.0,-999.0,-999,0.00,,,0.00,,2013-05-21 15:00:00,
2013-05-21 10:43:00,-999.0,-99.9,-100.00,SSW,195,5.0,-999.0,-999,0.00,,,0.00,,2013-05-21 15:43:00,
2013-05-21 10:53:00,-999.0,-99.9,-100.00,SSW,195,5.0,-999.0,-999,0.00,,,0.00,,2013-05-21 15:53:00,
2013-05-21 11:00:00,-999.0,-99.9,-100.00,SSE,167,4.0,-999.0,-999,0.00,,,0.00,,2013-05-21 16:00:00,
2013-05-21 11:42:00,-999.0,-99.9,-100.00,SSE,167,4.0,-999.0,-999,0.00,,,0.00,,2013-05-21 16:42:00,
2013-05-21 11:53:00,-999.0,-99.9,-100.00,SSE,167,4.0,-999.0,-999,0.00,,,0.00,,2013-05-21 16:53:00,
2013-05-21 12:00:00,-999.0,-99.9,-100.00,South,178,3.0,-999.0,-999,0.00,,,0.00,,2013-05-21 17:00:00,
2013-05-21 12:44:00,-999.0,-99.9,-100.00,South,178,3.0,-999.0,-999,0.00,,,0.00,,2013-05-21 17:44:00,
2013-05-21 12:53:00,-999.0,-99.9,-100.00,South,178,3.0,-999.0,-999,0.00,,,0.00,,2013-05-21 17:53:00,
2013-05-21 13:00:00,-999.0,-99.9,-100.00,South,173,5.0,-999.0,-999,0.00,,,0.00,,2013-05-21 18:00:00,
2013-05-21 13:42:00,-999.0,-99.9,-100.00,South,173,5.0,-999.0,-999,0.00,,,0.00,,2013-05-21 18:42:00,
2013-05-21 13:52:00,-999.0,-99.9,-100.00,South,173,5.0,-999.0,-999,0.00,,,0.00,,2013-05-21 18:52:00,
2013-05-21 14:00:00,-999.0,-99.9,-100.00,South,170,7.0,-999.0,-999,0.00,,,0.00,,2013-05-21 19:00:00,
2013-05-21 14:32:00,-999.0,-99.9,-100.00,South,170,7.0,-999.0,-999,0.00,,,0.00,,2013-05-21 19:32:00,
2013-05-21 14:42:00,-999.0,-99.9,-100.00,South,170,7.0,-999.0,-999,0.00,,,0.00,,2013-05-21 19:42:00,
2013-05-21 14:52:00,-999.0,-99.9,-100.00,South,170,7.0,-999.0,-999,0.00,,,0.00,,2013-05-21 19:52:00,
2013-05-21 15:00:00,-999.0,-99.9,-100.00,South,182,4.0,-999.0,-999,0.00,,,0.00,,2013-05-21 20:00:00,
2013-05-21 15:33:00,-999.0,-99.9,-100.00,South,182,4.0,-999.0,-999,0.00,,,0.00,,2013-05-21 20:33:00,
2013-05-21 15:42:00,-999.0,-99.9,-100.00,South,182,4.0,-999.0,-999,0.00,,,0.00,,2013-05-21 20:42:00,
2013-05-21 15:52:00,-999.0,-99.9,-100.00,South,182,4.0,-999.0,-999,0.00,,,0.00,,2013-05-21 20:52:00,
2013-05-21 16:00:00,-999.0,-99.9,-100.00,South,184,8.0,-999.0,-999,0.00,,,0.00,,2013-05-21 21:00:00,
2013-05-21 16:44:00,-999.0,-99.9,-100.00,South,184,8.0,-999.0,-999,0.00,,,0.00,,2013-05-21 21:44:00,
2013-05-21 16:54:00,-999.0,-99.9,-100.00,South,184,8.0,-999.0,-999,0.00,,,0.00,,2013-05-21 21:54:00,
2013-05-21 17:00:00,-999.0,-99.9,-100.00,South,191,14.0,-999.0,-999,0.00,,,0.00,,2013-05-21 22:00:00,
2013-05-21 17:34:00,-999.0,-99.9,-100.00,South,191,14.0,-999.0,-999,0.00,,,0.00,,2013-05-21 22:34:00,
2013-05-21 17:42:00,-999.0,-99.9,-100.00,South,191,14.0,-999.0,-999,0.00,,,0.00,,2013-05-21 22:42:00,
2013-05-21 17:53:00,-999.0,-99.9,-100.00,South,191,14.0,-999.0,-999,0.00,,,0.00,,2013-05-21 22:53:00,
2013-05-21 18:00:00,-999.0,-99.9,-100.00,SSE,164,10.0,-999.0,-999,0.00,,,0.00,,2013-05-21 23:00:00,
2013-05-21 18:42:00,-999.0,-99.9,-100.00,SSE,164,10.0,-999.0,-999,0.00,,,0.00,,2013-05-21 23:42:00,
2013-05-21 18:52:00,-999.0,-99.9,-100.00,SSE,164,10.0,-999.0,-999,0.00,,,0.00,,2013-05-21 23:52:00,
2013-05-21 22:00:00,-999.0,-99.9,-100.00,SE,134,1.0,-999.0,-999,0.00,,,0.00,,2013-05-22 03:00:00,
2013-05-21 22:33:00,-999.0,-99.9,-100.00,SE,134,1.0,-999.0,-999,0.00,,,0.00,,2013-05-22 03:33:00,
2013-05-21 22:43:00,-999.0,-99.9,-100.00,SE,134,1.0,-999.0,-999,0.00,,,0.00,,2013-05-22 03:43:00,
2013-05-21 22:53:00,-999.0,-99.9,-100.00,SE,134,1.0,-999.0,-999,0.00,,,0.00,,2013-05-22 03:53:00,
2013-05-21 23:00:00,-999.0,-99.9,-100.00,ESE,111,1.0,-999.0,-999,0.00,,,-99.99,,2013-05-22 04:00:00,
2013-05-21 23:33:00,-999.0,-99.9,-100.00,ESE,111,1.0,-999.0,-999,0.00,,,-99.99,,2013-05-22 04:33:00,
2013-05-21 23:43:00,-999.0,-99.9,-100.00,ESE,111,1.0,-999.0,-999,0.00,,,-99.99,,2013-05-22 04:43:00,
2013-05-21 23:53:00,-999.0,-99.9,-100.00,ESE,111,1.0,-999.0,-999,0.00,,,-99.99,,2013-05-22 04:53:00,